[[{"header":{"parameterUnit":"m.s-1","parameterCategory":1,"la1":30.2991,"la2":30.254,"lo1":-89.0895,"lo2":-89.0444,"dy":0.0017,"dx":0.0017,"nx":28,"ny":28,"refTime":"2025-04-08T21:00:00:Z","depth":0,"parameterNumber":2,"parameterNumberName":"U-component_of_WINDS"},"data":[0,0,0,0,0,0,0,0,0,0,0,0,0,0,0,0,0,0,0,0,0,0,0,0,0,0,0,0,0,0,0,0,0,0,0,0,0,0,0,0,0,0,0,0,0,0,0,0,0,0,0,0,0,0,0,0,0,0,1.3213,1.3212,0,1.3189,1.3188,1.3188,1.3168,1.3168,1.3168,1.3168,1.314,1.314,1.3139,0,0,0,0,0,0,0,0,0,0,0,0,0,1.324,1.3239,1.3213,1.3212,1.3212,1.3189,1.3188,1.3188,1.3168,1.3168,1.3168,1.3167,1.3141,1.314,1.3139,0,0,0,0,0,0,0,0,0,0,0,0,0,1.3223,1.3239,1.3213,1.3199,1.3198,1.3189,1.3188,1.3188,1.3168,1.3168,1.3168,1.3167,1.3141,1.314,1.3139,1.314,0,0,1.3137,1.3137,0,0,0,0,0,0,0,0,1.3224,1.3222,1.3202,1.32,1.3199,1.3181,1.3188,1.3172,1.3168,1.3179,1.3168,1.3167,1.3154,1.3152,1.3148,1.3139,1.3138,1.3137,1.3136,1.3136,1.3136,0,0,0,0,0,0,0,1.3225,1.3223,1.3203,1.3201,1.32,1.3194,1.3191,1.3185,1.3169,1.3178,1.3177,1.3175,1.3153,1.3149,1.3147,1.3138,1.3137,1.3136,1.3136,1.3135,1.3128,1.3129,0,0,0,0,0,0,1.3229,1.3224,1.3204,1.3202,1.3211,1.3194,1.3191,1.3187,1.3169,1.3166,1.3175,1.3174,1.3151,1.3148,1.3146,1.3146,1.3136,1.3135,1.3135,1.3128,1.3129,1.3129,0,0,0,0,0,0,1.3229,1.3227,1.3205,1.3213,1.321,1.3194,1.319,1.3187,1.3183,1.3166,1.3163,1.3174,1.315,1.3148,1.3142,1.3145,1.3135,1.3134,1.3128,1.3128,1.3129,1.3147,0,0,0,0,0,0,1.323,1.3228,1.3228,1.3213,1.3209,1.3202,1.319,1.3186,1.3182,1.318,1.3164,1.3161,1.315,1.3144,1.3142,1.3144,1.3134,1.3127,1.3128,1.3129,1.3146,1.3148,1.3149,0,0,0,0,0,1.3231,1.3234,1.3228,1.3226,1.321,1.3202,1.32,1.3187,1.3182,1.3182,1.3172,1.3162,1.3146,1.3143,1.3141,1.3143,1.3127,1.3128,1.3128,1.3145,1.3147,1.3149,0,0,0,0,0,0,1.3248,1.3231,1.3225,1.3223,1.3214,1.3199,1.3198,1.319,1.3182,1.3181,1.3165,1.3162,1.3158,1.315,1.3148,1.3143,1.3135,1.3135,1.3148,1.315,1.3152,1.3154,1.3133,0,0,0,0,0,1.3252,1.3248,1.3233,1.3232,1.3228,1.3214,1.321,1.3202,1.3191,1.3187,1.3176,1.3166,1.3159,1.3154,1.3147,1.3145,1.3141,1.3145,1.3147,1.3149,1.3149,1.3147,1.3148,1.3131,1.3131,1.3131,0,0,1.3259,1.3249,1.3247,1.3235,1.3227,1.3223,1.3211,1.3206,1.3202,1.3186,1.3181,1.3173,1.316,1.3157,1.3155,1.315,1.3153,1.3149,1.3151,1.315,1.3148,1.3149,1.3151,1.3131,1.3131,1.3131,0,0,1.3269,1.3262,1.326,1.3253,1.3242,1.3233,1.3233,1.3219,1.3213,1.3207,1.3195,1.319,1.3178,1.317,1.3164,1.3173,1.3163,1.3171,1.318,1.3178,1.3179,1.3181,1.3183,1.3184,1.3171,1.3171,1.3171,0,1.3279,1.3272,1.326,1.3257,1.3252,1.3238,1.3236,1.323,1.3216,1.3213,1.3208,1.3193,1.3184,1.3178,1.318,1.3176,1.3175,1.3172,1.318,1.3181,1.3182,1.3184,1.3186,1.3172,1.3172,1.3172,1.3172,0,1.3285,1.328,1.328,1.3269,1.3264,1.3261,1.3248,1.3245,1.3237,1.3228,1.3223,1.3212,1.3202,1.32,1.3192,1.3193,1.319,1.3184,1.3175,1.3185,1.3187,1.3188,1.3173,1.3173,1.3173,1.3172,0,0,1.3304,1.3287,1.3287,1.3282,1.3269,1.3265,1.3261,1.3252,1.3249,1.3241,1.3237,1.3228,1.3222,1.3215,1.3206,1.3205,1.3212,1.3198,1.3197,1.32,1.3212,1.3217,1.3218,1.3206,1.3206,1.3206,1.3213,0,1.3312,1.3305,1.3295,1.3292,1.3288,1.3275,1.3272,1.3264,1.3256,1.3251,1.3241,1.3235,1.3227,1.3223,1.3222,1.3212,1.3214,1.3211,1.3202,1.3202,1.3204,1.3219,1.3224,1.3231,1.3214,1.3214,1.3214,0,1.3319,1.3313,1.3309,1.3297,1.3295,1.3293,1.3284,1.3279,1.3269,1.3263,1.3257,1.3248,1.3243,1.3236,1.3229,1.3227,1.3223,1.3218,1.3218,1.3215,1.3208,1.3217,1.3233,1.3234,1.3215,1.3215,1.3215,0,1.3333,1.3323,1.332,1.3316,1.3302,1.33,1.3294,1.3284,1.328,1.3272,1.3269,1.326,1.3256,1.3249,1.3237,1.3234,1.3232,1.3224,1.3226,1.3226,1.3225,1.3225,1.324,1.3224,1.3224,1.3224,1.3224,0,1.3342,1.334,1.3326,1.3324,1.3321,1.331,1.3308,1.33,1.3292,1.3288,1.3277,1.3273,1.3258,1.3253,1.3244,1.3239,1.3237,1.3232,1.3229,1.3233,1.3233,1.3229,1.3228,1.3224,1.3224,1.3224,1.3224,0,1.3356,1.3346,1.3342,1.333,1.3327,1.3325,1.3315,1.3312,1.3304,1.3299,1.3297,1.3284,1.3277,1.3265,1.3255,1.3248,1.3245,1.3242,1.3249,1.3247,1.325,1.325,1.3262,1.3263,1.3247,1.3247,1.3247,0,1.3362,1.3361,1.3349,1.3346,1.334,1.3335,1.3331,1.332,1.3316,1.3305,1.3303,1.3296,1.3289,1.3278,1.3267,1.3259,1.3255,1.326,1.3253,1.3256,1.3254,1.3254,1.3253,1.3261,1.3261,1.3261,1.3261,0,1.3374,1.3369,1.3364,1.3357,1.3352,1.3346,1.3339,1.3337,1.3324,1.332,1.3313,1.3308,1.3298,1.329,1.3281,1.3274,1.3265,1.3264,1.3264,1.3266,1.327,1.3267,1.3252,1.3263,1.3263,1.3263,1.3263,1.3263,1.3383,1.3382,1.3373,1.3367,1.3361,1.3355,1.3352,1.3345,1.3339,1.333,1.3324,1.3318,1.3308,1.3295,1.3288,1.3283,1.3279,1.3279,1.3279,1.3279,1.328,1.3272,1.3281,1.3281,1.3281,1.3281,1.3281,0,1.3394,1.3388,1.3383,1.3374,1.337,1.3364,1.3356,1.3352,1.3347,1.334,1.3334,1.3326,1.3319,1.3308,1.33,1.3297,1.3293,1.3295,1.3295,1.3293,1.3284,1.3285,1.3299,1.3299,1.3299,1.3299,1.3299,1.3299,1.3399,1.3395,1.339,1.3384,1.3378,1.3372,1.3368,1.3362,1.3356,1.3348,1.3343,1.3336,1.3327,1.3318,1.3311,1.3308,1.3305,1.3309,1.3305,1.3296,1.3294,1.3292,1.3293,1.3309,1.3309,1.3314,1.3314,1.3314]},{"header":{"parameterUnit":"m.s-1","parameterCategory":1,"la1":30.2991,"la2":30.254,"lo1":-89.0895,"lo2":-89.0444,"dy":0.0017,"dx":0.0017,"nx":28,"ny":28,"refTime":"2025-04-08T21:00:00:Z","depth":0,"parameterNumber":3,"parameterNumberName":"V-component_of_WINDS"},"data":[0,0,0,0,0,0,0,0,0,0,0,0,0,0,0,0,0,0,0,0,0,0,0,0,0,0,0,0,0,0,0,0,0,0,0,0,0,0,0,0,0,0,0,0,0,0,0,0,0,0,0,0,0,0,0,0,0,0,-3.8157,-3.8158,0,-3.8281,-3.8283,-3.8284,-3.8265,-3.8263,-3.8261,-3.8259,-3.8384,-3.8389,-3.8394,0,0,0,0,0,0,0,0,0,0,0,0,0,-3.7903,-3.7908,-3.8157,-3.8158,-3.816,-3.8281,-3.8283,-3.8284,-3.8266,-3.8263,-3.8261,-3.8258,-3.8382,-3.8389,-3.8395,0,0,0,0,0,0,0,0,0,0,0,0,0,-3.8019,-3.791,-3.8157,-3.8165,-3.8167,-3.8281,-3.8283,-3.8285,-3.8266,-3.8263,-3.826,-3.8257,-3.838,-3.8388,-3.8396,-3.8508,0,0,-3.842,-3.8423,0,0,0,0,0,0,0,0,-3.8012,-3.8028,-3.8162,-3.8165,-3.8167,-3.8255,-3.8239,-3.8359,-3.8267,-3.8229,-3.8259,-3.8255,-3.8343,-3.8354,-3.8384,-3.8513,-3.8519,-3.8421,-3.8426,-3.8429,-3.8431,0,0,0,0,0,0,0,-3.8004,-3.8023,-3.8206,-3.8164,-3.8167,-3.8163,-3.8176,-3.8262,-3.8302,-3.8232,-3.8231,-3.8246,-3.8344,-3.8377,-3.8387,-3.8521,-3.8421,-3.8428,-3.8432,-3.8436,-3.8751,-3.8755,0,0,0,0,0,0,-3.7994,-3.8016,-3.8202,-3.821,-3.8081,-3.817,-3.8185,-3.823,-3.8301,-3.8309,-3.8248,-3.8244,-3.8365,-3.8378,-3.8391,-3.853,-3.8429,-3.8436,-3.8441,-3.8748,-3.8752,-3.8756,0,0,0,0,0,0,-3.7989,-3.8011,-3.8197,-3.8113,-3.8136,-3.8178,-3.8229,-3.8234,-3.8266,-3.8314,-3.8321,-3.8274,-3.8363,-3.838,-3.848,-3.8534,-3.844,-3.8447,-3.8743,-3.8749,-3.8754,-3.8806,0,0,0,0,0,0,-3.7982,-3.8009,-3.8052,-3.8114,-3.8141,-3.8284,-3.8232,-3.8238,-3.828,-3.8277,-3.834,-3.8347,-3.8362,-3.8468,-3.8488,-3.8543,-3.8453,-3.8739,-3.8746,-3.8752,-3.8799,-3.8812,-3.8823,0,0,0,0,0,-3.7973,-3.806,-3.8054,-3.8077,-3.8195,-3.8287,-3.8302,-3.8317,-3.8285,-3.8329,-3.8359,-3.8345,-3.8524,-3.8478,-3.85,-3.8559,-3.8735,-3.8744,-3.8752,-3.8794,-3.881,-3.8823,0,0,0,0,0,0,-3.8002,-3.8068,-3.8062,-3.8173,-3.8225,-3.8283,-3.8339,-3.8333,-3.8394,-3.8388,-3.8404,-3.8418,-3.852,-3.8549,-3.8496,-3.8672,-3.8625,-3.8638,-3.865,-3.8665,-3.8677,-3.8669,-3.846,0,0,0,0,0,-3.8021,-3.809,-3.8144,-3.8237,-3.8263,-3.8297,-3.8337,-3.8345,-3.8398,-3.842,-3.8458,-3.851,-3.8579,-3.8623,-3.8688,-3.8803,-3.8818,-3.8854,-3.8866,-3.8875,-3.8887,-3.8953,-3.897,-3.8783,-3.8783,-3.8783,0,0,-3.8062,-3.8107,-3.8149,-3.8244,-3.8285,-3.8357,-3.8315,-3.8392,-3.8446,-3.8431,-3.8529,-3.8558,-3.8618,-3.8727,-3.8776,-3.8754,-3.8942,-3.8886,-3.8893,-3.89,-3.8963,-3.8981,-3.8997,-3.8788,-3.8787,-3.8786,0,0,-3.8173,-3.8213,-3.8296,-3.8339,-3.8402,-3.8424,-3.8444,-3.8505,-3.8525,-3.8623,-3.8615,-3.8678,-3.8795,-3.8839,-3.8876,-3.9007,-3.8997,-3.9027,-3.909,-3.9154,-3.9169,-3.9182,-3.9232,-3.9249,-3.9038,-3.9039,-3.9039,0,-3.8216,-3.8324,-3.8339,-3.8418,-3.8461,-3.8453,-3.8538,-3.8578,-3.8659,-3.8689,-3.8662,-3.8811,-3.885,-3.8971,-3.9003,-3.9032,-3.9057,-3.9021,-3.9166,-3.9179,-3.9192,-3.9239,-3.9257,-3.9042,-3.9042,-3.9041,-3.9041,0,-3.8374,-3.845,-3.8509,-3.859,-3.8639,-3.872,-3.8748,-3.8796,-3.88,-3.8825,-3.8926,-3.8973,-3.905,-3.9078,-3.9081,-3.92,-3.9185,-3.9162,-3.9116,-3.9213,-3.9258,-3.9276,-3.9047,-3.9046,-3.9045,-3.9044,0,0,-3.8507,-3.8597,-3.8619,-3.8657,-3.8727,-3.8785,-3.8867,-3.8943,-3.8985,-3.9041,-3.9111,-3.9211,-3.9192,-3.9235,-3.9243,-3.9299,-3.9403,-3.927,-3.9272,-3.9295,-3.954,-3.9558,-3.9579,-3.9397,-3.94,-3.9403,-3.9536,0,-3.8627,-3.8773,-3.879,-3.892,-3.8991,-3.8985,-3.9057,-3.9108,-3.9134,-3.9198,-3.9226,-3.9298,-3.9265,-3.9292,-3.9347,-3.9379,-3.9453,-3.9369,-3.9463,-3.9467,-3.9451,-3.9602,-3.9621,-3.9744,-3.9553,-3.9556,-3.9558,0,-3.8787,-3.885,-3.8988,-3.9051,-3.9081,-3.9145,-3.9218,-3.9279,-3.9337,-3.9352,-3.9402,-3.9404,-3.9489,-3.9438,-3.9557,-3.95,-3.9539,-3.9561,-3.9566,-3.9577,-3.952,-3.9619,-3.9783,-3.9803,-3.9585,-3.9583,-3.9581,0,-3.8873,-3.8993,-3.9091,-3.9123,-3.9199,-3.9245,-3.9278,-3.9333,-3.9379,-3.9442,-3.9472,-3.9543,-3.9583,-3.9639,-3.966,-3.9621,-3.9779,-3.9729,-3.9795,-3.9795,-3.983,-3.9828,-4.0006,-3.9852,-3.9851,-3.9851,-3.9851,0,-3.9007,-3.9092,-3.9132,-3.9193,-3.9288,-3.9307,-3.9401,-3.9433,-3.9483,-3.955,-3.9548,-3.9611,-3.9635,-3.9702,-3.9719,-3.9817,-3.9834,-3.985,-3.9854,-3.9851,-3.985,-3.9879,-3.9872,-3.9856,-3.9855,-3.9854,-3.9853,0,-3.9121,-3.915,-3.9258,-3.9322,-3.934,-3.9408,-3.9462,-3.9522,-3.9547,-3.9633,-3.9654,-3.9694,-3.9774,-3.9801,-3.9896,-3.9908,-4.0022,-4.0017,-4.0003,-4.0004,-4.007,-4.0065,-4.0274,-4.0304,-4.0128,-4.013,-4.0131,0,-3.9205,-3.9271,-3.9342,-3.9388,-3.9424,-3.9497,-3.9544,-3.9566,-3.9615,-3.9688,-3.9739,-3.9818,-3.9883,-4.001,-4.0048,-4.0122,-4.0121,-4.0189,-4.0132,-4.0128,-4.0125,-4.0122,-4.013,-4.02,-4.0202,-4.0204,-4.0205,0,-3.9353,-3.9365,-3.9434,-3.9509,-3.9566,-3.9625,-3.9683,-3.972,-3.975,-3.9806,-3.9888,-3.9939,-4.0038,-4.0117,-4.0193,-4.0227,-4.0222,-4.0223,-4.0242,-4.0242,-4.0232,-4.0241,-4.0035,-4.0218,-4.0217,-4.0216,-4.0215,-4.0214,-3.9456,-3.9516,-3.9577,-3.9654,-3.97,-3.9755,-3.9815,-3.9849,-3.9918,-4.0002,-4.001,-4.0099,-4.0158,-4.026,-4.0298,-4.0368,-4.0349,-4.0377,-4.0384,-4.0392,-4.0399,-4.0219,-4.0382,-4.0381,-4.0381,-4.0381,-4.038,0,-3.9607,-3.9646,-3.9717,-3.9799,-3.9861,-3.9851,-3.9915,-3.9967,-4.0046,-4.0102,-4.0166,-4.0262,-4.034,-4.0385,-4.0462,-4.051,-4.051,-4.053,-4.0528,-4.0537,-4.0409,-4.0386,-4.053,-4.053,-4.053,-4.0529,-4.0529,-4.0529,-3.9692,-3.9794,-3.9813,-3.9938,-3.9977,-4.0065,-4.0103,-4.0154,-4.0199,-4.0307,-4.0372,-4.0401,-4.0453,-4.0535,-4.0607,-4.0618,-4.0648,-4.0671,-4.068,-4.0561,-4.0545,-4.0531,-4.0509,-4.0676,-4.0676,-4.0802,-4.0803,-4.0804]}]]